| time (UTC) | temp F | wind direction | speed MPH | gust MPH | rain 1hr in | rain 24hr in | rain mn in | humidity % | barometer mb |
| 20260504050003 | 62 | 116 | 11.0 | 17.0 | 0.00 | 0.00 | 0.00 | 82 | 1015.3 |
| 20260504045716 | 62 | 105 | 12.0 | 17.0 | 0.00 | 0.00 | 0.00 | 82 | 1015.3 |
| 20260504045003 | 62 | 101 | 12.0 | 17.0 | 0.00 | 0.00 | 0.00 | 82 | 1015.3 |
| 20260504044504 | 62 | 101 | 11.0 | 14.0 | 0.00 | 0.00 | 0.00 | 82 | 1015.3 |
| 20260504044003 | 62 | 95 | 11.0 | 16.0 | 0.00 | 0.00 | 0.00 | 82 | 1015.3 |
| 20260504043503 | 62 | 103 | 11.0 | 16.0 | 0.00 | 0.00 | 0.00 | 82 | 1015.3 |
| 20260504043216 | 62 | 102 | 11.0 | 16.0 | 0.00 | 0.00 | 0.00 | 82 | 1015.3 |
| 20260504042504 | 62 | 108 | 11.0 | 16.0 | 0.00 | 0.00 | 0.00 | 82 | 1015.3 |
| 20260504042004 | 62 | 112 | 11.0 | 16.0 | 0.00 | 0.00 | 0.00 | 81 | 1015.3 |
| 20260504041715 | 62 | 106 | 11.0 | 16.0 | 0.00 | 0.00 | 0.00 | 81 | 1015.3 |
| 20260504041004 | 62 | 94 | 12.0 | 15.0 | 0.00 | 0.00 | 0.00 | 81 | 1015.3 |
| 20260504040505 | 62 | 97 | 11.0 | 15.0 | 0.00 | 0.00 | 0.00 | 81 | 1015.3 |
| 20260504040004 | 62 | 100 | 11.0 | 15.0 | 0.00 | 0.00 | 0.00 | 81 | 1015.3 |
| 20260504035504 | 62 | 104 | 11.0 | 15.0 | 0.00 | 0.00 | 0.00 | 81 | 1015.3 |
| 20260504035215 | 62 | 104 | 11.0 | 14.0 | 0.00 | 0.00 | 0.00 | 81 | 1015.3 |
| 20260504034504 | 62 | 117 | 12.0 | 15.0 | 0.00 | 0.00 | 0.00 | 80 | 1015.3 |
| 20260504034216 | 62 | 117 | 12.0 | 15.0 | 0.00 | 0.00 | 0.00 | 80 | 1015.3 |
| 20260504033505 | 62 | 118 | 12.0 | 15.0 | 0.00 | 0.00 | 0.00 | 80 | 1015.3 |
| 20260504033217 | 62 | 122 | 11.0 | 15.0 | 0.00 | 0.00 | 0.00 | 80 | 1015.3 |
| 20260504032504 | 62 | 119 | 11.0 | 14.0 | 0.00 | 0.00 | 0.00 | 80 | 1015.3 |
| 20260504032004 | 62 | 114 | 11.0 | 14.0 | 0.00 | 0.00 | 0.00 | 79 | 1015.3 |
| 20260504031715 | 62 | 109 | 11.0 | 14.0 | 0.00 | 0.00 | 0.00 | 79 | 1015.3 |
| 20260504031004 | 62 | 99 | 9.0 | 14.0 | 0.00 | 0.00 | 0.00 | 79 | 1015.3 |
| 20260504030504 | 62 | 109 | 9.0 | 14.0 | 0.00 | 0.00 | 0.00 | 79 | 1015.3 |
| 20260504030214 | 62 | 107 | 9.0 | 12.0 | 0.00 | 0.00 | 0.00 | 79 | 1015.3 |
| 20260504025717 | 62 | 111 | 9.0 | 12.0 | 0.00 | 0.00 | 0.00 | 79 | 1015.3 |
| 20260504025004 | 62 | 122 | 9.0 | 11.0 | 0.00 | 0.00 | 0.00 | 79 | 1015.3 |
| 20260504024504 | 62 | 127 | 10.0 | 13.0 | 0.00 | 0.00 | 0.00 | 78 | 1015.3 |
| 20260504024216 | 62 | 125 | 10.0 | 13.0 | 0.00 | 0.00 | 0.00 | 78 | 1015.3 |
| 20260504023504 | 62 | 102 | 9.0 | 13.0 | 0.00 | 0.00 | 0.00 | 78 | 1015.3 |
| 20260504023004 | 62 | 103 | 9.0 | 14.0 | 0.00 | 0.00 | 0.00 | 78 | 1015.3 |
| 20260504022504 | 62 | 112 | 10.0 | 14.0 | 0.00 | 0.00 | 0.00 | 78 | 1015.3 |
| 20260504022213 | 62 | 111 | 10.0 | 15.0 | 0.00 | 0.00 | 0.00 | 78 | 1015.3 |
| 20260504021505 | 62 | 123 | 9.0 | 15.0 | 0.00 | 0.00 | 0.00 | 78 | 1015.3 |
| 20260504021005 | 62 | 131 | 8.0 | 14.0 | 0.00 | 0.00 | 0.00 | 78 | 1015.3 |
| 20260504020717 | 62 | 119 | 7.0 | 14.0 | 0.00 | 0.00 | 0.00 | 78 | 1015.3 |
| 20260504020004 | 62 | 115 | 7.0 | 12.0 | 0.00 | 0.00 | 0.00 | 78 | 1015.3 |
| 20260504015503 | 62 | 120 | 9.0 | 12.0 | 0.00 | 0.00 | 0.00 | 78 | 1015.3 |
| 20260504015004 | 62 | 130 | 8.0 | 12.0 | 0.00 | 0.00 | 0.00 | 78 | 1015.3 |
| 20260504014504 | 62 | 143 | 7.0 | 11.0 | 0.00 | 0.00 | 0.00 | 78 | 1015.3 |
| 20260504014004 | 62 | 122 | 6.0 | 10.0 | 0.00 | 0.00 | 0.00 | 78 | 1015.3 |
| 20260504013503 | 62 | 111 | 7.0 | 12.0 | 0.00 | 0.00 | 0.00 | 78 | 1015.3 |
| 20260504013004 | 62 | 129 | 8.0 | 12.0 | 0.00 | 0.00 | 0.00 | 78 | 1015.3 |
| 20260504012503 | 62 | 128 | 8.0 | 12.0 | 0.00 | 0.00 | 0.00 | 78 | 1015.3 |
| 20260504012003 | 62 | 126 | 7.0 | 11.0 | 0.00 | 0.00 | 0.00 | 77 | 1015.3 |
| 20260504011504 | 62 | 126 | 8.0 | 10.0 | 0.00 | 0.00 | 0.00 | 77 | 1015.3 |
| 20260504011003 | 62 | 121 | 7.0 | 10.0 | 0.00 | 0.00 | 0.00 | 77 | 1015.3 |
| 20260504010503 | 62 | 117 | 6.0 | 8.0 | 0.00 | 0.00 | 0.00 | 77 | 1015.3 |
| 20260504010003 | 62 | 106 | 7.0 | 10.0 | 0.00 | 0.00 | 0.00 | 77 | 1015.3 |
| 20260504005503 | 62 | 122 | 8.0 | 12.0 | 0.00 | 0.00 | 0.00 | 77 | 1015.3 |
| 20260504005004 | 62 | 131 | 9.0 | 13.0 | 0.00 | 0.00 | 0.00 | 77 | 1015.3 |
| 20260504004503 | 62 | 121 | 9.0 | 13.0 | 0.00 | 0.00 | 0.00 | 77 | 1015.3 |
| 20260504004003 | 62 | 101 | 9.0 | 12.0 | 0.00 | 0.00 | 0.00 | 77 | 1015.3 |
| 20260504003503 | 62 | 94 | 9.0 | 12.0 | 0.00 | 0.00 | 0.00 | 77 | 1015.3 |
| 20260504003004 | 62 | 101 | 9.0 | 14.0 | 0.00 | 0.00 | 0.00 | 77 | 1015.3 |
| 20260504002504 | 62 | 109 | 10.0 | 15.0 | 0.00 | 0.00 | 0.00 | 77 | 1015.3 |
| 20260504002004 | 62 | 109 | 9.0 | 15.0 | 0.00 | 0.00 | 0.00 | 77 | 1015.3 |
| 20260504001717 | 62 | 97 | 8.0 | 13.0 | 0.00 | 0.00 | 0.00 | 76 | 1015.3 |
| 20260504001004 | 62 | 94 | 7.0 | 11.0 | 0.00 | 0.00 | 0.00 | 76 | 1015.3 |
| 20260504000504 | 62 | 99 | 8.0 | 11.0 | 0.00 | 0.00 | 0.00 | 76 | 1015.3 |
| 20260504000004 | 62 | 103 | 8.0 | 10.0 | 0.00 | 0.00 | 0.00 | 76 | 1015.3 |
| 20260503235504 | 62 | 105 | 8.0 | 12.0 | 0.00 | 0.00 | 0.00 | 75 | 1015.3 |
| 20260503235217 | 63 | 122 | 9.0 | 12.0 | 0.00 | 0.00 | 0.00 | 74 | 1015.3 |
| 20260503234504 | 63 | 141 | 10.0 | 13.0 | 0.00 | 0.00 | 0.00 | 74 | 1015.3 |
| 20260503234004 | 63 | 139 | 9.0 | 13.0 | 0.00 | 0.00 | 0.00 | 74 | 1015.3 |
| 20260503233504 | 63 | 137 | 8.0 | 13.0 | 0.00 | 0.00 | 0.00 | 74 | 1015.3 |
| 20260503233004 | 63 | 132 | 10.0 | 14.0 | 0.00 | 0.00 | 0.00 | 74 | 1015.3 |
| 20260503232504 | 63 | 135 | 9.0 | 14.0 | 0.00 | 0.00 | 0.00 | 73 | 1015.3 |
| 20260503232004 | 63 | 142 | 9.0 | 14.0 | 0.00 | 0.00 | 0.00 | 73 | 1015.3 |
| 20260503231505 | 63 | 149 | 8.0 | 14.0 | 0.00 | 0.00 | 0.00 | 73 | 1015.3 |
| 20260503231004 | 63 | 155 | 6.0 | 9.0 | 0.00 | 0.00 | 0.00 | 73 | 1016.3 |
| 20260503230504 | 63 | 154 | 7.0 | 11.0 | 0.00 | 0.00 | 0.00 | 73 | 1016.3 |
| 20260503230004 | 63 | 148 | 8.0 | 11.0 | 0.00 | 0.00 | 0.00 | 73 | 1016.3 |
| 20260503225504 | 63 | 149 | 8.0 | 11.0 | 0.00 | 0.00 | 0.00 | 73 | 1016.3 |
| 20260503225004 | 63 | 161 | 8.0 | 12.0 | 0.00 | 0.00 | 0.00 | 73 | 1016.3 |
| 20260503224505 | 63 | 165 | 8.0 | 14.0 | 0.00 | 0.00 | 0.00 | 73 | 1016.3 |
| 20260503224004 | 63 | 151 | 9.0 | 14.0 | 0.00 | 0.00 | 0.00 | 73 | 1016.3 |
| 20260503223503 | 63 | 142 | 8.0 | 14.0 | 0.00 | 0.00 | 0.00 | 73 | 1016.3 |
| 20260503223004 | 63 | 159 | 7.0 | 11.0 | 0.00 | 0.00 | 0.00 | 73 | 1016.3 |
| 20260503222504 | 63 | 154 | 7.0 | 11.0 | 0.00 | 0.00 | 0.00 | 73 | 1016.3 |
| 20260503222003 | 63 | 151 | 7.0 | 11.0 | 0.00 | 0.00 | 0.00 | 73 | 1016.3 |
| 20260503221504 | 63 | 157 | 8.0 | 11.0 | 0.00 | 0.00 | 0.00 | 73 | 1016.3 |
| 20260503221216 | 63 | 162 | 9.0 | 11.0 | 0.00 | 0.00 | 0.00 | 73 | 1016.3 |
| 20260503220714 | 63 | 158 | 9.0 | 12.0 | 0.00 | 0.00 | 0.00 | 73 | 1016.3 |
| 20260503220004 | 63 | 156 | 9.0 | 12.0 | 0.00 | 0.00 | 0.00 | 72 | 1016.3 |
| 20260503215503 | 63 | 158 | 7.0 | 12.0 | 0.00 | 0.00 | 0.00 | 72 | 1016.3 |
| 20260503215004 | 63 | 159 | 7.0 | 9.0 | 0.00 | 0.00 | 0.00 | 72 | 1016.3 |
| 20260503214504 | 63 | 151 | 7.0 | 11.0 | 0.00 | 0.00 | 0.00 | 72 | 1016.3 |
| 20260503214005 | 63 | 142 | 7.0 | 11.0 | 0.00 | 0.00 | 0.00 | 72 | 1016.3 |
| 20260503213717 | 63 | 146 | 6.0 | 11.0 | 0.00 | 0.00 | 0.00 | 72 | 1016.3 |
| 20260503213004 | 63 | 164 | 8.0 | 11.0 | 0.00 | 0.00 | 0.00 | 72 | 1016.3 |
| 20260503212504 | 63 | 165 | 9.0 | 11.0 | 0.00 | 0.00 | 0.00 | 72 | 1016.3 |
| 20260503212216 | 63 | 159 | 8.0 | 11.0 | 0.00 | 0.00 | 0.00 | 72 | 1016.3 |
| 20260503211504 | 63 | 158 | 8.0 | 12.0 | 0.00 | 0.00 | 0.00 | 72 | 1016.3 |
| 20260503211004 | 63 | 160 | 6.0 | 11.0 | 0.00 | 0.00 | 0.00 | 72 | 1016.3 |
| 20260503210504 | 63 | 151 | 7.0 | 10.0 | 0.00 | 0.00 | 0.00 | 72 | 1016.3 |
| 20260503210004 | 63 | 148 | 8.0 | 11.0 | 0.00 | 0.00 | 0.00 | 72 | 1016.3 |
| 20260503205504 | 63 | 154 | 7.0 | 11.0 | 0.00 | 0.00 | 0.00 | 72 | 1016.3 |
| 20260503205004 | 63 | 162 | 6.0 | 9.0 | 0.00 | 0.00 | 0.00 | 72 | 1016.3 |
| 20260503204504 | 63 | 158 | 7.0 | 10.0 | 0.00 | 0.00 | 0.00 | 72 | 1016.3 |
| 20260503204004 | 63 | 148 | 7.0 | 10.0 | 0.00 | 0.00 | 0.00 | 72 | 1016.3 |
| 20260503203504 | 63 | 154 | 7.0 | 9.0 | 0.00 | 0.00 | 0.00 | 71 | 1016.3 |
| 20260503203216 | 63 | 158 | 7.0 | 9.0 | 0.00 | 0.00 | 0.00 | 71 | 1016.3 |
| 20260503202503 | 63 | 141 | 5.0 | 8.0 | 0.00 | 0.00 | 0.00 | 71 | 1016.3 |
| 20260503202217 | 63 | 120 | 5.0 | 8.0 | 0.00 | 0.00 | 0.00 | 71 | 1016.3 |
| 20260503201504 | 63 | 124 | 5.0 | 8.0 | 0.00 | 0.00 | 0.00 | 71 | 1016.3 |
| 20260503201213 | 63 | 128 | 5.0 | 8.0 | 0.00 | 0.00 | 0.00 | 71 | 1016.3 |
| 20260503200503 | 63 | 108 | 4.0 | 6.0 | 0.00 | 0.00 | 0.00 | 71 | 1016.3 |
| 20260503200004 | 63 | 133 | 5.0 | 8.0 | 0.00 | 0.00 | 0.00 | 70 | 1016.3 |
| 20260503195717 | 63 | 134 | 4.0 | 8.0 | 0.00 | 0.00 | 0.00 | 70 | 1016.3 |
| 20260503195003 | 63 | 135 | 4.0 | 6.0 | 0.00 | 0.00 | 0.00 | 70 | 1016.3 |
| 20260503194504 | 63 | 146 | 4.0 | 6.0 | 0.00 | 0.00 | 0.00 | 70 | 1016.3 |
| 20260503194004 | 63 | 146 | 4.0 | 6.0 | 0.00 | 0.00 | 0.00 | 69 | 1016.3 |
| 20260503193503 | 63 | 141 | 4.0 | 7.0 | 0.00 | 0.00 | 0.00 | 69 | 1016.3 |
| 20260503193003 | 63 | 141 | 4.0 | 7.0 | 0.00 | 0.00 | 0.00 | 69 | 1016.3 |
| 20260503192503 | 63 | 143 | 5.0 | 8.0 | 0.00 | 0.00 | 0.00 | 69 | 1016.3 |
| 20260503192212 | 63 | 133 | 5.0 | 8.0 | 0.00 | 0.00 | 0.00 | 69 | 1016.3 |
| 20260503191505 | 63 | 131 | 4.0 | 6.0 | 0.00 | 0.00 | 0.00 | 69 | 1016.3 |
| 20260503191003 | 63 | 144 | 4.0 | 7.0 | 0.00 | 0.00 | 0.00 | 68 | 1015.3 |
| 20260503190503 | 63 | 145 | 5.0 | 8.0 | 0.00 | 0.00 | 0.00 | 68 | 1015.3 |
| 20260503190003 | 63 | 153 | 6.0 | 8.0 | 0.00 | 0.00 | 0.00 | 68 | 1015.3 |
| 20260503185505 | 63 | 158 | 6.0 | 8.0 | 0.00 | 0.00 | 0.00 | 68 | 1016.3 |
| 20260503185004 | 63 | 168 | 6.0 | 9.0 | 0.00 | 0.00 | 0.00 | 68 | 1016.3 |
| 20260503184504 | 63 | 176 | 7.0 | 9.0 | 0.00 | 0.00 | 0.00 | 68 | 1016.3 |
| 20260503184005 | 63 | 172 | 7.0 | 9.0 | 0.00 | 0.00 | 0.00 | 67 | 1015.3 |
| 20260503183504 | 63 | 168 | 7.0 | 8.0 | 0.00 | 0.00 | 0.00 | 67 | 1015.3 |
| 20260503183004 | 63 | 169 | 7.0 | 9.0 | 0.00 | 0.00 | 0.00 | 67 | 1015.3 |
| 20260503182505 | 63 | 170 | 6.0 | 9.0 | 0.00 | 0.00 | 0.00 | 67 | 1015.3 |
| 20260503182006 | 63 | 175 | 6.0 | 9.0 | 0.00 | 0.00 | 0.00 | 67 | 1015.3 |
| 20260503181716 | 63 | 172 | 6.0 | 9.0 | 0.00 | 0.00 | 0.00 | 67 | 1015.3 |
| 20260503181004 | 64 | 165 | 6.0 | 9.0 | 0.00 | 0.00 | 0.00 | 68 | 1015.3 |
| 20260503180504 | 64 | 160 | 7.0 | 8.0 | 0.00 | 0.00 | 0.00 | 68 | 1015.3 |
| 20260503180215 | 64 | 166 | 7.0 | 8.0 | 0.00 | 0.00 | 0.00 | 68 | 1015.3 |
| 20260503175504 | 64 | 178 | 7.0 | 11.0 | 0.00 | 0.00 | 0.00 | 68 | 1015.3 |
| 20260503175216 | 64 | 176 | 7.0 | 11.0 | 0.00 | 0.00 | 0.00 | 68 | 1015.3 |
| 20260503174714 | 64 | 171 | 6.0 | 9.0 | 0.00 | 0.00 | 0.00 | 68 | 1015.3 |
| 20260503174004 | 64 | 170 | 6.0 | 9.0 | 0.00 | 0.00 | 0.00 | 68 | 1015.3 |
| 20260503173715 | 64 | 176 | 6.0 | 9.0 | 0.00 | 0.00 | 0.00 | 68 | 1015.3 |
| 20260503173218 | 64 | 176 | 6.0 | 9.0 | 0.00 | 0.00 | 0.00 | 69 | 1015.3 |
| 20260503172504 | 64 | 180 | 7.0 | 10.0 | 0.00 | 0.00 | 0.00 | 69 | 1015.3 |
| 20260503172214 | 65 | 167 | 7.0 | 10.0 | 0.00 | 0.00 | 0.00 | 69 | 1015.3 |
| 20260503171504 | 64 | 161 | 6.0 | 11.0 | 0.00 | 0.00 | 0.00 | 69 | 1015.3 |
| 20260503171004 | 64 | 160 | 6.0 | 8.0 | 0.00 | 0.00 | 0.00 | 69 | 1015.3 |
| 20260503170504 | 64 | 154 | 6.0 | 8.0 | 0.00 | 0.00 | 0.00 | 69 | 1015.3 |
| 20260503160215 | 65 | 176 | 7.0 | 10.0 | 0.00 | 0.00 | 0.00 | 69 | 1015.3 |
| 20260503151003 | 66 | 180 | 10.0 | 14.0 | 0.00 | 0.00 | 0.00 | 67 | 1015.3 |
| 20260503150505 | 66 | 180 | 12.0 | 15.0 | 0.00 | 0.00 | 0.00 | 67 | 1015.3 |
| 20260503131003 | 67 | 186 | 13.0 | 17.0 | 0.00 | 0.00 | 0.00 | 62 | 1017.3 |
| 20260503130503 | 67 | 185 | 14.0 | 18.0 | 0.00 | 0.00 | 0.00 | 61 | 1017.3 |
| 20260503120217 | 66 | 185 | 10.0 | 15.0 | 0.00 | 0.00 | 0.00 | 66 | 1017.3 |
| 20260503110715 | 67 | 178 | 9.0 | 11.0 | 0.00 | 0.00 | 0.00 | 67 | 1017.3 |
| 20260503090504 | 67 | 137 | 9.0 | 13.0 | 0.00 | 0.00 | 0.00 | 68 | 1018.3 |
| 20260503072503 | 64 | 101 | 11.0 | 15.0 | 0.00 | 0.00 | 0.00 | 71 | 1017.3 |
| 20260503072217 | 64 | 110 | 11.0 | 17.0 | 0.00 | 0.00 | 0.00 | 71 | 1017.3 |
| 20260503071506 | 64 | 111 | 12.0 | 17.0 | 0.00 | 0.00 | 0.00 | 71 | 1017.3 |
| 20260503071213 | 64 | 100 | 12.0 | 14.0 | 0.00 | 0.00 | 0.00 | 71 | 1017.3 |
| 20260503070503 | 64 | 96 | 13.0 | 14.0 | 0.00 | 0.00 | 0.00 | 71 | 1017.3 |
| 20260503070219 | 64 | 89 | 13.0 | 17.0 | 0.00 | 0.00 | 0.00 | 71 | 1017.3 |
| 20260503055004 | 61 | 92 | 9.0 | 12.0 | 0.00 | 0.00 | 0.00 | 75 | 1017.3 |
| 20260503054504 | 61 | 95 | 9.0 | 12.0 | 0.00 | 0.00 | 0.00 | 76 | 1017.3 |
| 20260503054004 | 60 | 78 | 8.0 | 13.0 | 0.00 | 0.00 | 0.00 | 76 | 1017.3 |
| 20260503053504 | 60 | 70 | 9.0 | 15.0 | 0.00 | 0.00 | 0.00 | 76 | 1017.3 |
| 20260503053004 | 59 | 63 | 10.0 | 15.0 | 0.00 | 0.00 | 0.00 | 76 | 1017.3 |
| 20260503052504 | 59 | 66 | 9.0 | 14.0 | 0.00 | 0.00 | 0.00 | 76 | 1017.3 |
| 20260503052004 | 58 | 75 | 8.0 | 10.0 | 0.00 | 0.00 | 0.00 | 76 | 1017.3 |
| 20260503051504 | 58 | 62 | 6.0 | 8.0 | 0.00 | 0.00 | 0.00 | 76 | 1017.3 |
| 20260503051004 | 57 | 51 | 6.0 | 8.0 | 0.00 | 0.00 | 0.00 | 76 | 1017.3 |
| 20260503050504 | 56 | 50 | 7.0 | 8.0 | 0.00 | 0.00 | 0.00 | 75 | 1017.3 |
| 20260503050215 | 56 | 48 | 7.0 | 8.0 | 0.00 | 0.00 | 0.00 | 75 | 1017.3 |